[[{"header":{"parameterUnit":"m.s-1","parameterCategory":1,"la1":30.2991,"la2":30.254,"lo1":-89.0895,"lo2":-89.0444,"dy":0.0017,"dx":0.0017,"nx":28,"ny":28,"refTime":"2025-11-17T03:00:00:Z","depth":0,"parameterNumber":2,"parameterNumberName":"U-component_of_WINDS"},"data":[0,0,0,0,0,0,0,0,0,0,0,0,0,0,0,0,0,0,0,0,0,0,0,0,0,0,0,0,0,0,0,0,0,0,0,0,0,0,0,0,0,0,0,0,0,0,0,0,0,0,0,0,0,0,0,0,0,0,-2.2403,-2.2404,0,-2.244,-2.244,-2.244,-2.2407,-2.2406,-2.2404,-2.2403,-2.244,-2.2442,-2.2444,0,0,0,0,0,0,0,0,0,0,0,0,0,-2.2306,-2.2308,-2.2403,-2.2404,-2.2404,-2.244,-2.244,-2.2441,-2.2407,-2.2406,-2.2404,-2.2402,-2.2439,-2.2442,-2.2445,0,0,0,0,0,0,0,0,0,0,0,0,0,-2.2346,-2.2309,-2.2403,-2.2392,-2.2391,-2.2439,-2.244,-2.2441,-2.2408,-2.2406,-2.2404,-2.2402,-2.2438,-2.2442,-2.2445,-2.2506,0,0,-2.2455,-2.2457,0,0,0,0,0,0,0,0,-2.2344,-2.235,-2.2393,-2.2393,-2.2392,-2.2417,-2.2419,-2.2463,-2.2408,-2.2401,-2.2403,-2.2401,-2.2434,-2.2437,-2.2449,-2.2508,-2.2509,-2.2455,-2.2457,-2.2459,-2.246,0,0,0,0,0,0,0,-2.2341,-2.2348,-2.2418,-2.2394,-2.2393,-2.2385,-2.2389,-2.2427,-2.2429,-2.2402,-2.2399,-2.2404,-2.2433,-2.2446,-2.2449,-2.251,-2.2455,-2.2458,-2.246,-2.2462,-2.2622,-2.2624,0,0,0,0,0,0,-2.2339,-2.2346,-2.2417,-2.2419,-2.2362,-2.2389,-2.2393,-2.2411,-2.2428,-2.2429,-2.2406,-2.2403,-2.2441,-2.2445,-2.245,-2.2523,-2.2459,-2.2462,-2.2464,-2.262,-2.2623,-2.2625,0,0,0,0,0,0,-2.2337,-2.2346,-2.2415,-2.2382,-2.239,-2.2393,-2.2413,-2.2413,-2.2425,-2.2431,-2.2431,-2.2418,-2.2439,-2.2446,-2.2493,-2.2524,-2.2464,-2.2467,-2.2617,-2.2621,-2.2624,-2.267,0,0,0,0,0,0,-2.2335,-2.2346,-2.2368,-2.2382,-2.2392,-2.2457,-2.2415,-2.2415,-2.2431,-2.2427,-2.2443,-2.2443,-2.2438,-2.2488,-2.2496,-2.2528,-2.2469,-2.2614,-2.2619,-2.2623,-2.2665,-2.2674,-2.2682,0,0,0,0,0,-2.2331,-2.238,-2.237,-2.2378,-2.242,-2.2458,-2.2464,-2.2457,-2.2434,-2.2457,-2.2461,-2.2443,-2.252,-2.2493,-2.2502,-2.2535,-2.2612,-2.2618,-2.2623,-2.2662,-2.2672,-2.2682,0,0,0,0,0,0,-2.2369,-2.2381,-2.237,-2.2424,-2.2441,-2.2453,-2.2481,-2.2468,-2.2491,-2.2487,-2.2477,-2.2481,-2.2531,-2.2538,-2.2508,-2.2596,-2.2562,-2.2569,-2.2589,-2.2599,-2.2607,-2.2604,-2.2472,0,0,0,0,0,-2.2383,-2.2413,-2.2422,-2.2469,-2.2478,-2.2479,-2.2495,-2.2489,-2.2505,-2.2511,-2.2519,-2.2536,-2.2564,-2.2582,-2.2608,-2.2667,-2.267,-2.2694,-2.2702,-2.2709,-2.2715,-2.2747,-2.2758,-2.2642,-2.2642,-2.2642,0,0,-2.2413,-2.2424,-2.2443,-2.2477,-2.2489,-2.252,-2.2485,-2.2519,-2.2542,-2.2517,-2.2561,-2.2568,-2.2586,-2.2639,-2.2663,-2.2646,-2.2748,-2.2716,-2.2721,-2.2723,-2.2753,-2.2764,-2.2774,-2.2645,-2.2645,-2.2644,0,0,-2.2484,-2.2495,-2.2536,-2.2549,-2.2567,-2.2568,-2.2578,-2.2592,-2.2596,-2.2641,-2.2623,-2.265,-2.2699,-2.2712,-2.2726,-2.2804,-2.2788,-2.2813,-2.2855,-2.2887,-2.2896,-2.2904,-2.2932,-2.2942,-2.2819,-2.2819,-2.2819,0,-2.2519,-2.2565,-2.2558,-2.2594,-2.261,-2.2589,-2.263,-2.2643,-2.267,-2.2681,-2.2662,-2.2723,-2.2734,-2.2791,-2.281,-2.2822,-2.2833,-2.281,-2.2895,-2.2903,-2.2911,-2.2937,-2.2948,-2.2822,-2.2822,-2.2822,-2.2821,0,-2.2607,-2.264,-2.267,-2.2697,-2.2716,-2.2754,-2.2753,-2.2774,-2.2767,-2.2769,-2.2816,-2.2829,-2.2857,-2.2871,-2.2863,-2.2927,-2.2916,-2.2897,-2.2863,-2.2925,-2.2949,-2.2959,-2.2826,-2.2825,-2.2824,-2.2824,0,0,-2.27,-2.2724,-2.2735,-2.2747,-2.2767,-2.2792,-2.283,-2.2859,-2.2876,-2.2896,-2.2928,-2.297,-2.2953,-2.2968,-2.2963,-2.2991,-2.3052,-2.2968,-2.2968,-2.2983,-2.3123,-2.3136,-2.3148,-2.3043,-2.3044,-2.3046,-2.3121,0,-2.2772,-2.2837,-2.2833,-2.2895,-2.2925,-2.2907,-2.294,-2.2957,-2.2961,-2.2987,-2.2992,-2.3022,-2.2997,-2.3006,-2.3033,-2.3039,-2.308,-2.3034,-2.3072,-2.3073,-2.3066,-2.3161,-2.3175,-2.3245,-2.3131,-2.3132,-2.3133,0,-2.2862,-2.2886,-2.2951,-2.2967,-2.298,-2.301,-2.3036,-2.3061,-2.308,-2.3081,-2.3099,-2.309,-2.3129,-2.3096,-2.3149,-2.3118,-2.3134,-2.3139,-2.3142,-2.3144,-2.3106,-2.3165,-2.3267,-2.3277,-2.3149,-2.3147,-2.3146,0,-2.2923,-2.2971,-2.3016,-2.3027,-2.3048,-2.3069,-2.3079,-2.3095,-2.3113,-2.3136,-2.3148,-2.3176,-2.3191,-2.3213,-2.3211,-2.3187,-2.3266,-2.3232,-2.3268,-2.3268,-2.3284,-2.3283,-2.3389,-2.3296,-2.3296,-2.3296,-2.3296,0,-2.3002,-2.3043,-2.3044,-2.3071,-2.3116,-2.3112,-2.3157,-2.3164,-2.318,-2.3209,-2.3196,-2.3223,-2.322,-2.3249,-2.3248,-2.3293,-2.33,-2.3302,-2.3301,-2.3302,-2.3302,-2.3312,-2.3306,-2.3299,-2.3298,-2.3297,-2.3297,0,-2.3077,-2.3079,-2.3127,-2.3143,-2.3149,-2.3181,-2.3195,-2.3222,-2.3225,-2.3263,-2.3271,-2.3277,-2.331,-2.3311,-2.3349,-2.3348,-2.3403,-2.3397,-2.3397,-2.3395,-2.343,-2.3427,-2.3546,-2.3561,-2.3459,-2.346,-2.3461,0,-2.3126,-2.3157,-2.3177,-2.3196,-2.3207,-2.3237,-2.3255,-2.3253,-2.3273,-2.3297,-2.3321,-2.3353,-2.3377,-2.3431,-2.3439,-2.3468,-2.3462,-2.3502,-2.3466,-2.3467,-2.3462,-2.346,-2.3463,-2.3508,-2.3509,-2.351,-2.3511,0,-2.3214,-2.3214,-2.3241,-2.3269,-2.3291,-2.3313,-2.3333,-2.3349,-2.3349,-2.3372,-2.3406,-2.3425,-2.3464,-2.3496,-2.3525,-2.3535,-2.3523,-2.3523,-2.3532,-2.3533,-2.3531,-2.3532,-2.3414,-2.3519,-2.3518,-2.3518,-2.3517,-2.3517,-2.3277,-2.3304,-2.3322,-2.3353,-2.3368,-2.3388,-2.3414,-2.3421,-2.3449,-2.3481,-2.3478,-2.3515,-2.3534,-2.3572,-2.3585,-2.3614,-2.36,-2.3615,-2.3618,-2.3621,-2.3625,-2.3528,-2.3619,-2.3619,-2.3619,-2.3619,-2.3619,0,-2.3364,-2.3375,-2.3404,-2.3432,-2.3457,-2.3445,-2.3467,-2.3488,-2.3521,-2.354,-2.3565,-2.3604,-2.3636,-2.3647,-2.3677,-2.3699,-2.3694,-2.3707,-2.3704,-2.3707,-2.3635,-2.3624,-2.371,-2.371,-2.371,-2.371,-2.371,-2.371,-2.3411,-2.3456,-2.3459,-2.3511,-2.3522,-2.3559,-2.3573,-2.3591,-2.3606,-2.365,-2.3676,-2.3683,-2.37,-2.3732,-2.376,-2.3763,-2.3774,-2.3789,-2.3789,-2.3721,-2.3712,-2.3703,-2.3692,-2.3792,-2.3792,-2.3858,-2.3859,-2.3859]},{"header":{"parameterUnit":"m.s-1","parameterCategory":1,"la1":30.2991,"la2":30.254,"lo1":-89.0895,"lo2":-89.0444,"dy":0.0017,"dx":0.0017,"nx":28,"ny":28,"refTime":"2025-11-17T03:00:00:Z","depth":0,"parameterNumber":3,"parameterNumberName":"V-component_of_WINDS"},"data":[0,0,0,0,0,0,0,0,0,0,0,0,0,0,0,0,0,0,0,0,0,0,0,0,0,0,0,0,0,0,0,0,0,0,0,0,0,0,0,0,0,0,0,0,0,0,0,0,0,0,0,0,0,0,0,0,0,0,1.5092,1.5092,0,1.5128,1.5128,1.5129,1.5151,1.5151,1.5151,1.5151,1.5186,1.5187,1.5187,0,0,0,0,0,0,0,0,0,0,0,0,0,1.5041,1.5041,1.5092,1.5092,1.5093,1.5128,1.5128,1.5129,1.5151,1.5151,1.5151,1.5151,1.5185,1.5186,1.5187,0,0,0,0,0,0,0,0,0,0,0,0,0,1.5068,1.5042,1.5092,1.5108,1.511,1.5128,1.5128,1.5129,1.5151,1.5151,1.5151,1.5151,1.5185,1.5186,1.5188,1.5192,0,0,1.5191,1.5192,0,0,0,0,0,0,0,0,1.5067,1.507,1.5105,1.5107,1.5109,1.5135,1.5123,1.515,1.5151,1.5135,1.5151,1.5151,1.5169,1.5171,1.5177,1.5193,1.5195,1.5191,1.5192,1.5193,1.5193,0,0,0,0,0,0,0,1.5065,1.5069,1.5106,1.5105,1.5108,1.5113,1.5117,1.5128,1.515,1.5136,1.5138,1.5142,1.517,1.5176,1.5178,1.5195,1.5191,1.5192,1.5193,1.5194,1.5218,1.5218,0,0,0,0,0,0,1.506,1.5067,1.5105,1.5107,1.5088,1.5114,1.5118,1.5126,1.515,1.5154,1.5142,1.5143,1.5174,1.5177,1.518,1.5187,1.5193,1.5194,1.5194,1.5218,1.5218,1.5218,0,0,0,0,0,0,1.5059,1.5064,1.5103,1.5087,1.5093,1.5114,1.5123,1.5127,1.5134,1.5154,1.5158,1.5145,1.5174,1.5178,1.5189,1.5189,1.5194,1.5195,1.5218,1.5218,1.5218,1.5202,0,0,0,0,0,0,1.5058,1.5063,1.5065,1.5087,1.5094,1.5112,1.5123,1.5128,1.5136,1.5138,1.5158,1.5162,1.5175,1.5187,1.519,1.5191,1.5196,1.5218,1.5218,1.5218,1.5202,1.5201,1.52,0,0,0,0,0,1.5056,1.5058,1.5065,1.5069,1.5097,1.5112,1.5116,1.5131,1.5136,1.5138,1.5152,1.5161,1.5188,1.5188,1.5192,1.5192,1.5218,1.5218,1.5218,1.5203,1.5201,1.52,0,0,0,0,0,0,1.5034,1.5061,1.5069,1.5079,1.5093,1.5116,1.5119,1.5129,1.5141,1.5142,1.5161,1.5165,1.5175,1.5185,1.5184,1.5198,1.5204,1.5205,1.5192,1.519,1.5189,1.5187,1.5197,0,0,0,0,0,1.503,1.5041,1.5064,1.507,1.5077,1.5097,1.5104,1.5115,1.513,1.5136,1.5151,1.5165,1.5177,1.5184,1.5196,1.5204,1.5209,1.5206,1.5205,1.5204,1.5204,1.521,1.521,1.5217,1.5217,1.5217,0,0,1.5022,1.5039,1.5044,1.5066,1.5079,1.509,1.5102,1.5112,1.512,1.5138,1.515,1.5161,1.5177,1.5187,1.5192,1.5196,1.5203,1.5204,1.5203,1.5203,1.521,1.5209,1.5209,1.5217,1.5217,1.5217,0,0,1.5014,1.5027,1.5035,1.5047,1.5067,1.508,1.5082,1.5103,1.5112,1.5124,1.5138,1.5148,1.5168,1.518,1.5188,1.5187,1.5196,1.519,1.5183,1.5189,1.5189,1.5188,1.5188,1.5188,1.519,1.519,1.519,0,1.5002,1.5019,1.5037,1.5047,1.5057,1.5075,1.5083,1.5094,1.5115,1.5122,1.5125,1.5152,1.5164,1.5178,1.5178,1.5184,1.5187,1.5187,1.5187,1.5187,1.5187,1.5188,1.5187,1.5189,1.5189,1.5189,1.5189,0,1.5004,1.5015,1.5019,1.5041,1.5051,1.506,1.508,1.5088,1.5098,1.5111,1.5124,1.514,1.5156,1.516,1.517,1.5176,1.5177,1.5184,1.519,1.5185,1.5186,1.5186,1.5188,1.5188,1.5189,1.5189,0,0,1.4981,1.5015,1.5016,1.5027,1.505,1.5059,1.507,1.5087,1.5094,1.5108,1.5118,1.5135,1.5142,1.5152,1.5163,1.5168,1.5167,1.5174,1.5175,1.5173,1.5176,1.5171,1.5171,1.5174,1.5174,1.5174,1.5174,0,1.4977,1.4997,1.5014,1.5028,1.5039,1.5057,1.5066,1.5081,1.5094,1.5106,1.5119,1.5132,1.5139,1.5146,1.5152,1.5166,1.5168,1.5166,1.5182,1.5183,1.5178,1.5171,1.5166,1.5165,1.5175,1.5175,1.5175,0,1.4974,1.499,1.5005,1.5029,1.5035,1.5042,1.506,1.5071,1.5089,1.5098,1.511,1.5122,1.5134,1.5139,1.5156,1.5154,1.5162,1.517,1.5171,1.5173,1.5179,1.5174,1.5166,1.5166,1.5175,1.5175,1.5175,0,1.4958,1.4982,1.4995,1.5004,1.5032,1.5037,1.5049,1.5067,1.5077,1.5092,1.5099,1.5115,1.5124,1.5136,1.5152,1.5154,1.5168,1.5174,1.5175,1.5175,1.5177,1.5177,1.5171,1.5181,1.5181,1.5181,1.5181,0,1.4952,1.496,1.4989,1.4996,1.5007,1.5027,1.5037,1.505,1.5066,1.5077,1.5093,1.5102,1.5123,1.5135,1.5148,1.5161,1.5164,1.5172,1.5175,1.5171,1.517,1.5176,1.5177,1.5181,1.5181,1.5181,1.5181,0,1.4935,1.4954,1.4969,1.4995,1.5002,1.5009,1.503,1.5039,1.5053,1.5066,1.5071,1.5092,1.5108,1.5126,1.5146,1.5155,1.5166,1.5171,1.5161,1.5163,1.5164,1.5163,1.5162,1.5163,1.5172,1.5172,1.5172,0,1.493,1.4937,1.4964,1.4973,1.4985,1.4999,1.5009,1.5029,1.5039,1.5062,1.5067,1.5084,1.5099,1.5122,1.514,1.5156,1.5161,1.516,1.5164,1.5159,1.5162,1.5162,1.5163,1.5158,1.5158,1.5158,1.5158,0,1.4919,1.4929,1.4944,1.4963,1.4975,1.499,1.5006,1.5013,1.5036,1.5046,1.5063,1.5074,1.5097,1.5113,1.5132,1.5144,1.5155,1.5157,1.5158,1.5154,1.5148,1.5152,1.5158,1.5156,1.5157,1.5157,1.5157,1.5157,1.4909,1.4917,1.4938,1.4954,1.4969,1.4984,1.4993,1.501,1.5024,1.5044,1.5055,1.5072,1.509,1.5117,1.5128,1.5142,1.5145,1.5147,1.5147,1.5148,1.5147,1.5145,1.5145,1.5145,1.5145,1.5145,1.5145,0,1.49,1.4914,1.493,1.4952,1.4966,1.4976,1.4995,1.5005,1.502,1.5037,1.5051,1.5071,1.5088,1.5107,1.5125,1.5131,1.5137,1.5135,1.5135,1.5138,1.5142,1.5139,1.5131,1.5131,1.5131,1.5131,1.5131,1.5131,1.4896,1.4911,1.4924,1.4946,1.496,1.4978,1.4988,1.5002,1.5016,1.5037,1.5052,1.5065,1.5083,1.5102,1.5118,1.5123,1.5129,1.5126,1.5133,1.5136,1.5138,1.5139,1.5137,1.5127,1.5127,1.5128,1.5128,1.5128]}]]